Theta_e
309 309 308 309 308 308 309 309 308 306 308 313 310 309 311 311 305 301 309 311 309 314 316 318 321 323 324 326 328 332 332 331 331 331 330 330 332 334 337 345 340 345 344 344 346 346 347 348 347 348 347 350 355 363 360 355 359 360 360 361 361 360 360 359 359 360 360 361 365 366 365 363 363 361 361 363 365 364 363 366 368 370 370 367 365 362 359
307 308 308 309 308 308 308 308 308 309 309 312 311 311 312 311 311 312 312 311 310 314 318 320 322 325 327 329 331 331 331 331 333 333 331 330 331 333 337 341 342 343 347 348 347 346 345 344 344 345 347 349 351 352 358 357 362 361 363 363 361 360 359 360 361 363 363 365 365 365 364 362 363 363 362 362 361 358 360 364 368 369 366 366 361 360 359
305 307 309 309 309 307 306 308 309 309 308 308 310 311 312 314 312 312 311 311 311 318 321 324 325 326 327 330 328 328 331 331 333 332 331 330 330 332 338 341 342 344 345 348 349 347 346 346 344 345 347 350 352 353 357 359 361 362 364 362 361 360 360 361 363 365 362 363 365 364 365 365 364 363 364 362 358 358 362 361 362 363 361 354 352 359 358
306 310 309 309 309 309 307 309 313 312 308 306 311 310 315 312 309 310 310 308 311 317 323 324 324 325 324 324 326 325 327 329 329 329 330 330 331 334 335 339 342 345 343 341 343 343 343 344 345 344 346 348 347 348 353 360 361 362 362 362 361 361 362 364 362 361 359 361 363 363 364 364 365 365 364 363 358 356 357 356 356 355 353 355 356 359 356
302 307 308 308 308 306 303 309 312 311 316 315 315 316 317 317 314 309 307 308 316 321 323 319 321 322 323 324 325 324 327 328 328 328 329 331 331 333 336 337 342 343 346 345 340 341 342 342 341 346 348 348 348 349 351 359 363 363 364 363 361 361 362 362 360 360 359 359 361 363 363 364 364 363 362 359 353 354 351 352 351 346 347 352 357 358 356
304 307 307 308 303 296 302 311 317 316 313 314 312 311 313 319 318 314 315 316 320 321 320 319 320 320 322 324 326 331 329 328 328 329 330 332 332 334 337 339 343 346 350 351 351 343 343 344 344 347 348 351 351 349 349 358 362 365 363 362 361 361 360 360 361 359 360 360 359 362 363 364 364 363 356 353 352 350 350 352 352 351 353 353 356 355 355
303 307 306 301 296 298 310 320 319 319 319 319 314 314 316 316 319 319 316 318 320 321 322 323 322 324 325 327 327 330 331 333 332 331 331 331 331 334 337 339 342 346 348 352 355 347 342 343 344 346 349 352 348 347 348 350 357 358 356 361 361 361 360 360 362 361 360 360 360 361 363 363 362 355 352 353 351 350 350 352 351 351 356 355 354 353 354
306 303 302 295 297 310 317 318 318 321 320 317 314 311 317 318 317 318 315 316 319 320 320 323 326 325 325 326 329 331 331 332 332 331 329 333 333 335 339 341 344 346 348 349 351 350 351 345 345 348 350 351 350 348 348 348 349 350 349 353 361 363 362 363 363 363 361 360 361 361 362 361 355 350 351 350 348 351 352 351 352 356 357 356 353 352 350
301 303 302 301 309 308 312 315 315 316 313 312 310 304 309 316 319 318 317 319 320 321 321 323 324 326 325 323 325 329 328 329 331 335 332 334 336 339 341 342 345 348 348 350 349 349 349 347 348 349 354 353 355 350 345 346 347 346 347 349 356 362 362 363 364 364 363 361 361 359 352 349 349 350 350 352 353 352 350 351 351 353 355 355 357 354 352
307 301 299 300 300 298 306 314 319 323 322 321 320 313 307 317 319 320 318 317 318 320 321 322 323 325 320 316 321 328 333 333 331 334 333 334 339 340 341 344 346 348 348 349 348 346 344 345 346 348 347 350 350 348 349 348 348 348 348 351 357 361 362 363 363 359 359 359 352 350 350 350 349 351 353 354 352 353 353 352 353 352 354 355 356 354 352
306 303 299 298 297 301 309 315 319 321 323 322 320 311 304 314 319 319 320 318 319 320 320 322 323 319 314 315 320 327 329 333 333 335 334 334 337 341 344 344 344 347 347 349 346 346 345 343 345 345 347 346 348 348 348 351 351 351 351 354 359 358 356 353 352 355 354 353 351 351 351 351 348 346 348 352 354 357 357 355 353 354 353 352 351 353 353
305 303 300 298 305 304 313 318 317 318 323 322 317 300 299 314 321 321 320 319 320 322 321 322 320 318 313 315 321 328 330 334 333 332 334 334 336 340 344 347 348 348 349 349 347 345 343 343 344 346 343 343 342 342 346 350 352 353 357 358 355 356 354 352 351 350 348 348 348 352 351 351 352 352 351 355 356 355 355 354 352 354 351 349 349 349 353
303 304 302 305 307 314 317 317 320 322 321 316 302 297 306 317 321 322 321 322 322 324 322 322 319 323 324 325 328 330 330 333 333 334 335 335 338 339 343 345 350 346 346 346 345 344 341 340 342 342 343 341 340 340 344 348 352 356 358 355 354 352 352 350 349 348 347 346 346 351 356 354 354 355 356 356 357 355 353 350 350 350 351 350 350 351 353
303 304 302 302 306 312 317 320 320 322 314 302 301 313 320 321 321 323 322 321 323 324 323 323 324 326 327 330 330 329 330 329 333 333 336 337 338 340 345 348 348 344 344 346 345 344 342 342 343 342 341 340 338 338 338 342 346 357 357 355 353 352 352 350 348 347 348 347 353 356 357 357 354 354 357 358 355 353 352 350 345 343 345 347 346 349 351
307 306 302 299 293 313 321 319 317 322 311 311 319 321 323 324 322 321 323 323 323 325 323 325 325 326 327 328 329 329 330 330 334 333 334 336 337 339 342 345 346 345 344 344 344 343 343 344 343 341 340 338 339 339 338 338 345 353 356 353 352 351 352 348 347 347 346 347 353 357 356 356 355 354 355 353 352 350 348 346 346 344 343 343 344 342 346
302 302 299 299 310 316 320 318 310 317 322 322 324 322 318 322 323 322 322 323 325 326 326 326 327 327 327 329 330 330 330 331 335 334 335 337 337 340 343 345 346 347 345 344 344 344 343 343 344 343 341 340 341 339 338 342 346 353 356 355 354 352 350 349 351 351 349 351 355 355 355 356 354 351 350 350 349 347 346 344 342 340 341 342 341 341 345
307 305 308 315 319 320 321 320 320 322 324 325 325 323 322 321 323 324 322 323 325 326 326 327 327 325 328 328 329 328 329 333 333 336 334 335 336 339 341 343 347 348 346 345 343 344 344 343 344 345 344 342 341 342 346 346 347 355 355 356 356 353 350 350 352 353 353 353 353 353 355 354 351 349 348 347 344 343 343 342 342 340 342 342 343 345 346
318 318 321 320 320 320 321 322 324 323 322 323 323 324 320 323 325 326 324 324 325 326 327 325 325 326 327 327 328 330 333 334 334 337 335 336 338 340 341 343 346 348 349 348 346 345 344 345 345 349 351 349 348 352 355 356 356 353 351 353 353 353 353 353 353 354 351 351 352 354 354 354 353 350 348 347 346 345 344 343 344 342 345 345 346 346 345
309 302 318 317 316 319 320 321 324 325 326 325 325 323 322 323 324 324 326 326 326 325 326 326 326 327 328 328 330 331 333 332 334 333 334 336 338 338 339 342 345 346 347 347 348 348 347 349 348 348 349 350 354 357 353 354 355 352 350 351 352 354 354 352 353 352 352 349 348 349 351 352 353 350 348 349 346 344 343 343 345 345 345 344 345 344 344
310 310 316 318 319 321 323 321 321 320 322 324 324 324 324 325 326 326 326 327 325 327 325 326 325 326 327 327 327 328 330 331 332 333 334 336 338 340 342 344 345 345 346 346 347 347 348 350 351 350 350 350 351 353 353 354 352 349 350 350 349 351 348 351 351 349 349 349 339 332 330 330 330 339 341 337 333 332 336 344 346 345 345 344 345 344 343
313 316 318 319 321 321 321 323 322 323 322 323 324 325 325 325 326 326 328 328 327 327 325 326 325 325 327 328 329 330 331 331 332 333 336 338 339 340 342 343 345 344 345 346 347 348 348 350 351 351 353 353 353 352 353 350 347 344 345 344 345 345 348 349 348 345 341 336 333 329 324 321 317 315 318 331 332 326 322 320 324 339 346 345 345 345 345
309 309 313 317 310 309 314 318 320 321 323 323 323 324 323 324 325 327 326 327 329 329 328 327 327 325 327 330 331 331 331 332 334 335 337 339 339 340 343 344 344 345 346 347 347 347 348 351 351 351 352 354 354 352 351 350 347 342 342 343 344 345 345 346 348 350 339 337 334 331 328 324 322 319 314 304 311 324 321 317 311 311 319 337 337 332 326
309 315 318 320 319 317 320 320 321 323 324 324 323 323 324 325 326 327 326 325 326 327 328 330 328 328 327 329 331 331 330 334 337 338 339 339 340 341 342 341 342 343 344 347 347 347 349 351 352 351 352 352 351 351 350 349 348 347 344 345 344 343 344 346 345 345 340 339 337 335 332 330 328 325 322 316 302 303 310 311 307 304 305 308 313 321 327
318 321 320 322 320 318 320 322 323 323 326 324 323 324 325 324 325 325 324 325 325 325 327 328 330 329 329 329 330 330 333 335 336 337 339 339 340 340 341 341 342 343 344 345 347 347 349 350 350 352 347 347 347 348 349 349 347 344 342 341 343 343 344 347 344 345 344 343 340 338 337 336 333 330 328 325 320 306 303 306 305 302 301 301 303 306 312
318 323 324 326 324 323 323 324 325 324 325 324 322 322 323 323 324 325 324 325 327 326 326 326 329 330 330 330 332 333 333 335 337 338 339 339 339 339 340 342 343 344 345 346 347 348 349 350 348 345 345 343 345 347 348 347 346 343 342 343 343 343 343 343 344 345 344 343 342 340 338 337 336 334 332 328 324 321 317 305 303 301 300 301 301 302 302
324 324 325 327 326 324 326 324 322 323 323 324 323 323 325 327 325 326 326 327 326 327 328 328 328 330 332 332 333 334 335 335 337 339 337 337 338 340 341 342 343 346 346 346 347 347 346 345 341 342 342 342 342 343 347 346 347 345 344 344 343 341 342 344 343 346 347 346 344 344 342 341 339 337 335 332 330 328 325 322 320 311 304 301 300 300 297
325 326 325 322 320 320 322 320 319 322 323 323 324 325 326 326 328 328 328 329 328 329 329 330 331 332 333 334 334 335 334 335 337 337 339 338 339 340 342 343 344 345 345 346 344 344 341 342 342 340 337 334 337 342 345 344 346 344 343 345 346 348 348 346 344 344 346 347 347 345 344 342 340 338 337 337 335 333 330 325 321 318 316 316 308 301 311
324 324 323 318 316 318 320 322 323 323 323 325 325 325 325 326 326 327 327 328 328 329 330 332 331 331 331 333 333 334 334 335 334 336 337 338 340 342 344 344 344 345 345 345 344 342 342 343 341 341 339 340 341 343 344 344 345 346 346 345 346 346 346 344 344 345 348 347 346 345 343 342 341 339 339 338 335 332 327 325 321 318 316 316 315 311 305
323 322 324 323 323 323 324 324 323 323 324 325 326 325 325 324 325 325 325 326 327 328 328 330 332 333 332 331 332 334 334 335 335 336 338 340 341 342 344 344 344 344 343 342 343 344 343 342 339 337 339 342 345 344 345 344 344 345 346 347 347 349 348 346 347 347 347 347 347 346 341 340 340 339 337 335 333 330 327 323 321 319 317 318 318 318 318
322 324 323 323 324 323 322 321 321 323 323 325 324 324 325 324 324 324 325 326 327 326 327 329 330 331 331 332 333 334 334 334 335 337 339 339 341 342 343 342 342 343 343 341 340 340 340 339 336 337 338 341 344 345 344 342 343 346 347 346 346 350 349 348 346 344 342 342 341 339 342 342 340 337 335 333 331 329 326 323 322 321 321 323 323 321 319
323 324 323 323 323 322 321 321 322 323 324 325 324 324 325 325 325 325 326 326 327 327 329 329 330 331 332 332 334 336 337 337 338 338 339 340 340 338 339 338 335 336 338 338 338 338 338 338 336 335 338 341 342 343 342 342 344 346 347 348 349 339 338 339 340 343 341 341 342 340 339 339 340 337 334 332 329 327 326 325 325 324 325 326 327 326 323
322 322 322 321 321 322 321 322 323 323 323 324 323 323 325 326 326 326 326 326 328 328 329 331 333 331 331 335 336 336 336 336 337 337 338 337 337 337 338 337 336 337 338 338 338 339 340 338 336 337 338 339 341 343 342 343 344 345 345 344 342 342 339 337 339 339 340 339 340 339 336 335 335 334 333 331 330 329 329 329 329 328 326 327 325 325 327
320 318 318 320 321 321 321 322 322 322 323 323 324 325 326 326 327 327 328 329 329 332 330 331 332 333 334 334 334 334 336 336 335 334 335 336 337 336 337 337 338 339 339 340 340 340 340 338 338 340 340 340 342 344 344 345 346 345 345 343 342 341 342 337 337 339 340 338 337 336 337 335 334 333 332 332 332 332 331 330 328 328 326 322 322 323 320
321 320 321 322 322 320 320 321 323 323 324 326 326 327 328 328 328 328 328 329 329 329 329 331 332 334 334 334 334 334 334 333 331 333 334 336 337 337 338 338 338 338 337 338 340 342 343 341 341 339 341 342 343 345 348 349 349 347 346 344 342 340 340 338 338 339 338 337 336 336 336 335 334 333 333 333 332 330 330 329 328 326 319 317 318 319 316
325 324 325 324 325 325 325 324 324 324 325 326 326 327 327 328 330 330 330 329 328 328 331 333 333 334 333 333 334 332 332 331 331 331 333 335 336 338 339 338 337 337 337 338 340 341 341 341 341 340 342 343 343 345 346 347 346 347 345 343 342 341 340 338 338 337 337 337 337 336 336 335 334 335 334 332 331 330 329 329 325 321 318 316 316 321 321
326 325 325 325 326 326 326 326 327 326 325 325 326 327 328 327 327 328 328 329 331 331 331 331 332 333 332 333 330 331 331 331 332 332 333 334 336 338 339 336 336 335 335 335 339 341 342 343 342 340 341 341 343 343 342 346 348 346 344 343 341 340 338 336 336 337 337 336 334 333 333 334 334 332 332 331 330 330 328 325 321 320 317 315 316 319 320
327 326 325 326 328 329 328 327 329 328 327 327 326 326 327 328 328 329 330 329 329 331 330 331 332 331 331 332 332 331 331 331 331 332 333 334 334 334 334 334 334 333 335 333 336 340 341 340 338 338 337 339 339 340 342 341 341 342 341 339 338 336 335 334 333 331 331 330 329 329 328 328 328 328 328 326 325 324 323 322 323 321 317 316 317 318 319
327 327 328 329 330 330 328 329 329 329 328 328 327 328 329 330 330 330 328 330 329 330 332 332 332 333 332 330 330 329 329 330 331 331 329 329 329 327 325 326 327 332 330 330 336 340 339 339 338 338 338 337 337 337 337 336 339 337 336 335 334 333 331 330 329 329 329 329 328 326 325 324 324 323 324 325 324 323 322 322 322 321 320 321 321 321 320
326 327 329 329 330 329 329 329 329 329 328 328 327 328 329 329 329 328 329 327 329 330 330 330 331 330 328 327 327 327 327 328 329 326 325 325 325 323 322 323 324 326 327 331 332 335 337 337 335 334 334 336 336 336 337 335 335 333 332 331 330 329 329 328 327 327 327 327 326 325 323 324 324 324 323 321 321 322 322 321 319 320 318 318 318 318 318
325 326 327 327 327 329 329 329 328 328 328 328 327 326 328 328 328 328 327 326 328 329 328 328 328 326 326 325 325 324 326 327 328 326 324 324 324 323 323 324 325 328 328 328 329 329 329 329 329 328 327 327 327 328 329 330 330 329 329 329 328 328 328 328 328 326 326 326 326 327 324 326 324 322 321 320 321 320 319 319 319 319 318 318 319 318 317
326 326 327 327 327 328 329 328 327 327 328 328 327 327 328 327 327 326 324 324 326 327 327 326 325 324 324 324 324 324 324 325 325 325 325 324 322 321 319 318 324 327 328 328 327 327 327 328 327 326 325 325 325 326 325 326 325 324 324 324 323 323 323 323 323 325 325 324 325 326 323 320 318 317 317 317 317 317 318 318 317 318 318 318 317 317 318
328 328 327 326 328 327 326 327 326 327 326 326 325 326 326 326 324 322 322 323 323 324 324 325 324 324 323 323 323 323 323 323 324 324 324 323 321 320 318 320 326 327 328 327 327 327 326 326 326 327 325 325 326 327 327 326 324 323 324 324 325 325 324 325 327 325 325 325 322 320 319 318 317 317 318 318 317 318 318 318 318 318 318 317 316 315 315
327 327 326 327 327 326 326 326 325 324 324 323 324 323 323 322 321 321 321 321 321 321 322 322 324 324 323 322 321 321 321 321 320 319 319 321 322 322 320 321 325 327 328 327 327 326 326 325 325 325 326 325 325 325 325 324 324 323 324 325 326 326 326 326 326 322 319 318 318 318 317 316 316 317 317 317 317 317 317 317 316 317 317 317 318 316 316
327 327 327 327 327 327 327 325 324 323 321 320 322 321 321 320 320 319 319 319 320 320 320 320 320 321 322 322 322 321 320 319 318 318 318 319 320 322 325 324 324 324 325 326 325 324 324 325 325 325 325 324 323 324 322 322 321 320 319 319 318 318 318 317 317 317 318 319 318 317 317 316 316 316 317 316 316 317 318 317 317 317 317 319 319 319 319
327 327 326 326 327 327 326 324 322 320 321 322 322 321 321 320 319 319 319 319 319 320 320 319 319 318 318 318 319 320 321 322 322 320 316 315 315 317 321 323 323 324 324 325 324 324 324 324 324 325 324 323 323 323 319 318 319 319 318 318 318 319 319 319 320 318 318 317 318 318 318 318 318 318 318 318 318 317 317 317 318 318 319 318 318 317 317
326 326 327 325 325 325 325 324 323 323 323 322 321 322 321 320 319 319 320 320 319 320 321 320 320 319 318 318 318 318 319 320 320 321 321 320 318 319 322 323 322 323 323 324 323 323 323 324 323 322 323 323 322 318 318 318 317 316 316 315 316 318 319 318 316 315 316 316 316 316 316 317 318 318 318 317 318 317 317 318 318 319 320 318 318 317 320
327 326 326 325 325 325 325 324 324 322 321 320 319 320 321 321 319 319 319 320 319 320 321 321 320 320 320 320 319 316 314 314 316 319 321 322 322 320 321 322 322 322 322 322 322 323 324 325 325 323 323 322 321 317 316 316 317 318 318 318 319 321 319 319 317 315 314 314 314 314 316 315 315 315 316 317 318 319 319 319 318 319 319 318 319 319 317
327 326 325 325 324 325 325 324 322 320 319 318 319 320 322 321 319 318 318 318 318 319 320 321 322 321 319 317 317 318 318 314 310 312 318 319 320 319 318 319 321 320 320 321 321 321 322 323 324 323 323 323 319 320 320 319 319 320 320 319 318 316 316 315 315 316 317 318 319 321 319 319 320 319 319 317 317 319 320 320 318 317 316 316 317 317 317
328 327 326 326 325 324 323 322 322 320 320 320 320 320 321 321 320 319 317 316 315 314 315 317 318 318 316 316 313 312 313 315 313 311 317 318 320 321 321 320 319 318 321 318 320 322 325 324 324 324 325 324 321 321 322 321 321 320 319 319 318 319 319 318 319 319 319 319 319 319 320 318 319 321 319 318 318 320 320 319 318 316 317 318 320 318 318
328 327 326 325 324 323 322 322 321 321 322 321 320 320 321 320 317 317 319 316 315 314 313 314 314 317 318 317 316 313 310 310 312 313 315 317 318 319 322 323 322 321 321 318 319 319 324 328 325 323 321 322 320 319 319 318 318 317 317 317 317 316 316 316 316 318 319 320 317 316 315 316 319 320 320 317 318 318 318 319 319 319 317 317 317 317 317
327 326 325 324 323 324 324 323 322 323 322 320 320 320 320 317 316 317 317 318 316 315 312 312 312 312 314 316 318 316 315 315 314 315 316 317 321 322 320 320 324 322 321 319 320 318 319 320 320 321 320 319 318 318 317 316 315 315 317 316 318 317 318 319 318 319 320 320 320 319 319 318 320 322 320 317 317 318 318 318 317 318 318 318 318 319 318
328 327 327 325 324 324 323 322 323 323 322 320 320 319 318 317 316 316 319 319 317 316 316 313 312 314 314 315 319 318 316 316 316 315 316 316 317 316 318 320 321 321 323 320 319 321 318 318 320 317 318 318 318 318 323 323 320 319 321 322 324 320 321 318 318 320 321 321 319 319 318 319 320 319 319 319 318 320 318 318 318 318 317 318 319 318 319
Wind_Speed
14 15 16 14 14 13 14 15 15 15 16 7 5 5 2 5 6 10 12 11 12 11 11 11 9 10 11 12 12 12 10 9 9 8 9 11 12 13 20 8 5 7 4 4 2 4 4 6 6 4 6 7 6 8 9 10 6 6 11 13 14 13 12 12 12 11 11 11 9 8 7 7 6 6 6 4 2 3 4 2 3 2 3 2 5 6 5
13 14 14 14 15 13 13 15 17 16 13 8 5 3 4 5 8 10 11 12 15 7 11 11 11 9 9 9 8 10 12 12 9 7 10 12 13 13 15 13 5 7 4 4 5 4 4 4 5 4 5 7 3 4 9 12 11 12 12 11 12 11 11 11 10 9 9 9 9 8 8 8 7 7 6 4 3 4 3 2 2 2 2 5 5 4 3
12 12 13 13 14 12 13 16 16 15 13 15 3 6 7 7 6 10 12 11 11 5 6 7 7 7 7 8 10 12 12 13 12 10 11 12 13 15 13 13 8 4 6 6 5 5 4 3 5 4 4 7 6 6 9 12 13 13 11 10 9 11 12 10 8 6 7 9 10 10 9 8 7 7 7 5 5 4 3 1 1 4 8 6 2 3 4
10 11 11 13 15 16 14 16 20 18 12 8 7 5 4 4 9 10 13 11 6 5 8 8 10 10 8 10 9 10 10 11 12 13 14 12 13 15 16 13 9 6 10 6 3 1 3 3 3 5 3 3 7 7 8 11 11 12 10 9 10 10 9 9 8 7 7 8 9 9 9 9 8 8 7 7 7 5 3 2 6 8 5 1 4 3 3
9 12 13 16 15 13 13 8 13 14 13 11 8 7 7 10 2 2 4 7 5 7 8 10 9 12 11 9 7 7 8 9 7 8 10 12 15 18 15 18 12 10 8 10 14 4 0 3 4 4 5 3 3 5 7 9 7 9 9 9 8 8 8 9 9 8 8 9 9 8 9 8 7 7 7 6 6 2 2 5 6 4 3 4 3 3 2
9 13 14 14 9 10 5 5 9 11 10 9 9 8 9 4 3 3 6 8 8 9 9 10 10 11 11 10 7 2 3 8 8 6 6 8 10 15 16 17 15 12 9 8 9 16 11 9 9 7 8 9 10 10 7 9 6 4 5 5 6 7 8 9 9 9 9 10 9 8 8 7 6 7 7 8 7 6 5 0 4 5 5 5 2 2 2
9 10 13 10 10 4 4 1 7 8 9 9 6 9 7 7 5 5 7 9 10 10 9 9 9 9 10 10 10 5 5 8 7 6 7 7 11 16 18 17 17 14 11 9 7 10 15 12 9 10 11 9 8 5 6 0 5 2 1 3 4 6 7 8 9 9 10 10 9 8 7 6 5 8 7 7 8 4 6 6 4 4 4 5 3 1 3
8 9 7 9 5 8 5 7 10 9 7 5 7 7 6 8 8 7 8 10 12 11 11 11 9 10 13 13 9 4 6 8 9 7 7 6 9 15 16 17 15 15 13 11 10 4 8 12 10 8 10 10 9 7 9 5 4 4 2 6 8 8 8 9 9 9 9 9 8 7 6 4 7 9 7 8 10 8 6 4 4 3 2 4 4 5 5
8 8 9 10 8 3 9 4 9 9 5 6 7 7 7 9 9 8 5 6 8 10 10 9 10 10 11 11 7 1 6 10 9 3 4 5 9 13 16 15 14 13 12 11 13 14 12 8 5 8 5 11 11 11 10 12 13 16 16 14 9 8 8 8 8 8 8 8 6 6 10 8 6 6 8 8 9 7 6 4 3 3 4 4 4 5 4
6 8 8 9 8 7 7 5 8 7 5 4 6 6 4 7 8 7 7 10 9 10 9 9 11 11 7 7 2 3 5 9 12 8 9 9 8 11 13 13 13 11 12 12 12 9 7 7 7 6 13 12 2 10 12 13 9 8 10 10 9 8 7 5 3 3 2 4 10 7 9 9 8 9 7 6 7 6 6 6 4 4 2 4 4 5 6
7 8 9 8 10 4 2 7 5 0 7 5 8 8 5 1 7 7 6 9 9 9 9 10 10 8 7 5 4 8 12 11 13 8 9 11 12 12 10 10 12 11 10 8 6 4 2 4 2 4 6 11 9 3 5 5 7 7 7 8 6 7 6 7 8 8 8 7 4 5 7 7 5 4 6 6 5 5 5 6 6 6 4 5 4 4 4
7 9 9 9 5 4 5 4 2 4 4 7 7 8 2 1 6 6 7 9 9 8 8 9 7 6 7 8 8 12 12 7 10 12 11 12 15 14 13 7 8 8 7 5 5 4 5 6 7 7 7 6 9 11 11 7 7 8 7 4 6 8 9 9 9 13 11 6 4 3 7 6 6 7 7 5 7 7 5 5 6 5 7 5 6 4 5
8 8 8 7 3 2 3 8 6 5 7 7 7 7 3 5 6 6 6 7 8 5 5 5 6 3 5 8 12 14 10 5 10 11 11 14 17 16 13 11 10 9 7 6 4 4 2 2 3 3 3 7 7 8 13 10 7 4 2 4 7 8 9 10 12 14 12 12 12 8 7 7 6 7 7 7 6 7 8 7 6 5 5 5 7 6 5
7 5 7 7 3 2 7 4 5 6 8 3 5 3 3 6 7 7 8 8 7 8 7 6 5 7 9 11 11 13 9 7 5 11 9 9 11 15 11 8 10 9 7 6 4 3 3 2 2 3 1 8 7 5 8 12 12 3 3 4 6 7 8 8 10 11 9 6 4 7 7 8 9 8 6 6 6 7 6 7 8 7 5 4 4 4 5
5 3 7 4 3 4 5 8 2 8 5 4 2 3 4 4 7 8 8 7 7 6 7 7 7 8 9 10 11 13 12 7 4 9 10 10 9 10 10 8 8 9 7 7 7 5 3 3 2 1 3 6 7 6 3 12 14 6 3 4 6 6 7 9 9 9 8 8 5 7 8 9 8 7 6 6 7 7 8 9 8 7 5 3 6 3 3
5 6 5 3 4 6 8 7 5 1 3 2 0 2 5 4 6 7 8 7 6 8 9 9 8 8 9 7 8 11 12 9 2 9 10 10 10 10 10 8 7 7 6 5 4 6 6 5 4 4 2 4 6 7 4 8 12 8 5 7 6 6 8 9 10 9 9 9 8 9 10 9 9 8 7 7 7 8 8 8 8 7 4 3 4 7 6
4 5 6 6 7 6 6 8 6 5 5 4 5 3 4 5 6 5 6 8 8 9 10 10 8 8 6 8 7 9 9 11 10 8 7 8 9 10 10 9 8 4 4 4 3 5 5 5 4 6 4 4 5 5 5 8 10 6 4 6 6 8 9 10 10 9 9 9 9 9 9 10 9 9 8 9 7 7 7 6 7 7 5 7 7 6 6
1 2 4 1 3 5 7 6 6 5 3 1 1 5 7 6 6 7 7 8 9 10 9 9 9 7 8 10 9 8 6 6 11 9 9 8 8 9 9 10 9 8 4 4 2 4 7 7 4 4 4 2 1 1 4 7 7 5 4 5 6 7 10 11 12 12 11 10 9 8 9 8 8 8 9 9 9 8 7 5 6 7 7 7 6 6 6
3 0 5 6 5 6 6 5 4 4 4 3 3 6 7 8 8 10 11 9 9 10 10 10 9 9 8 8 7 7 7 6 8 10 9 7 8 9 10 10 10 9 8 7 6 7 9 6 5 4 4 5 3 2 1 6 4 5 7 5 4 7 9 12 12 12 11 8 8 8 6 6 3 6 5 6 9 9 9 8 8 9 7 7 7 7 7
3 3 4 4 6 6 2 2 3 2 3 6 7 7 7 8 9 10 10 9 10 10 10 10 10 11 9 9 9 9 8 9 9 9 9 10 9 8 9 10 10 9 8 8 8 9 8 6 3 5 3 4 5 3 2 3 5 3 4 3 6 5 2 5 10 10 10 14 11 8 8 7 6 5 7 6 6 5 4 5 8 8 8 7 6 8 8
4 2 2 3 8 3 3 4 2 4 6 7 8 9 9 10 9 10 9 8 9 9 11 11 11 11 10 9 9 10 9 9 9 9 9 10 10 10 10 10 10 9 8 9 9 10 9 7 5 3 3 3 5 7 8 9 8 6 7 12 11 8 1 4 2 7 10 11 10 10 10 11 11 9 6 5 8 9 8 5 4 3 8 7 7 6 6
1 2 4 6 6 5 6 7 9 9 9 9 9 9 10 10 8 9 11 10 10 10 10 11 11 12 10 9 9 11 9 9 9 8 9 9 11 10 9 8 10 10 10 10 9 9 9 7 6 4 4 3 4 5 8 6 5 4 7 11 11 10 4 4 3 5 10 11 10 10 11 11 12 13 19 18 13 8 7 10 13 17 14 7 8 8 8
3 5 5 5 6 6 6 9 10 10 9 8 8 8 8 9 8 8 10 11 11 11 11 10 12 12 11 11 10 10 10 7 7 8 8 9 9 9 10 10 10 11 10 10 10 9 9 8 6 4 3 2 6 9 8 6 6 4 4 2 5 9 6 2 4 2 11 9 10 10 11 11 11 12 11 13 18 17 15 13 18 21 20 20 18 14 12
4 4 6 7 6 7 9 10 10 9 7 8 10 10 10 11 11 11 11 12 12 12 12 12 11 12 12 11 11 11 10 10 9 10 9 10 10 11 10 9 10 11 11 10 10 10 8 8 6 5 3 6 7 6 5 6 7 7 7 8 7 6 7 3 4 7 6 8 10 10 9 9 10 11 11 12 12 16 18 20 21 20 19 19 18 17 15
5 6 7 8 8 9 9 9 9 8 7 8 10 11 11 11 12 13 12 11 11 12 13 12 12 11 12 12 10 10 10 10 9 9 9 9 11 10 10 10 10 9 9 9 9 9 8 7 6 7 6 7 3 4 6 8 7 7 6 6 8 7 3 2 4 6 5 8 8 10 10 10 10 9 10 11 12 11 13 18 20 19 18 18 18 17 17
6 7 8 9 9 8 7 9 10 9 10 11 11 11 12 13 10 10 12 12 12 12 12 12 12 12 11 11 9 10 11 11 10 9 9 10 10 9 10 11 11 9 9 9 9 9 11 11 9 9 9 6 2 2 4 5 4 5 7 5 8 7 6 4 1 2 3 7 8 8 8 9 9 9 10 10 11 11 11 10 11 14 15 15 14 15 13
7 7 8 9 9 9 9 9 10 12 12 11 12 12 12 13 13 11 11 11 12 12 12 12 12 11 10 10 10 10 10 11 11 9 8 10 10 9 9 9 11 11 12 9 8 8 8 6 2 5 5 2 6 3 6 6 6 5 6 6 7 10 12 7 3 2 4 6 6 7 8 9 9 10 10 10 10 9 9 9 9 9 7 7 10 11 7
6 6 6 8 9 10 11 12 12 13 12 11 12 13 13 11 11 11 12 12 12 12 11 10 10 10 10 9 9 9 10 10 10 10 10 10 9 9 8 10 10 11 9 7 4 1 4 4 1 3 5 5 6 2 3 4 6 6 5 7 8 7 8 8 7 2 2 7 8 8 9 9 9 9 9 9 9 9 9 9 9 9 8 7 5 5 9
6 8 7 8 9 10 11 12 11 10 11 10 11 12 12 13 12 12 12 11 11 11 10 9 8 9 9 10 9 9 9 9 10 10 9 8 9 9 9 9 9 7 5 4 4 5 6 9 9 7 1 7 4 7 7 5 5 6 6 6 7 7 7 7 7 7 5 7 7 9 9 9 9 9 9 10 9 9 9 9 9 8 7 6 6 5 4
8 8 9 9 9 12 13 12 10 10 11 12 12 12 12 12 12 11 11 12 11 11 10 10 9 9 9 9 9 9 9 10 11 9 9 9 9 9 10 10 9 7 5 4 6 8 8 10 8 3 7 12 6 5 5 5 4 4 4 5 4 5 8 8 7 9 9 9 9 12 10 9 9 10 10 9 9 9 9 9 8 7 6 6 6 6 5
9 9 11 10 12 12 11 11 11 11 11 11 12 12 11 10 10 11 11 11 10 9 10 9 9 11 11 11 11 11 10 9 8 9 9 9 10 10 9 6 5 5 7 6 5 5 6 8 7 4 7 6 2 8 9 8 6 6 6 5 4 9 13 14 11 9 9 10 9 9 9 9 7 9 10 9 9 8 8 7 7 6 6 5 4 5 6
10 11 11 10 11 12 12 10 10 11 11 11 12 11 10 10 10 11 11 10 10 10 10 9 6 6 9 9 10 11 11 11 10 10 10 8 7 6 4 4 7 7 7 6 5 4 3 6 8 10 8 6 6 9 9 10 8 8 6 6 7 7 9 13 9 9 9 10 10 8 9 10 9 9 9 9 9 8 7 7 6 6 5 4 7 6 5
10 11 10 11 12 12 12 11 11 12 12 12 10 9 9 9 10 11 11 10 9 7 7 8 6 5 8 9 9 11 9 8 8 8 8 6 4 4 5 4 5 7 5 5 5 2 4 7 5 4 3 4 4 7 8 8 8 9 8 7 8 9 9 9 10 9 9 9 9 8 8 9 9 9 8 8 8 7 7 7 7 6 7 7 5 5 4
9 9 10 11 10 11 12 12 10 11 10 9 9 9 8 6 7 8 9 10 11 10 8 7 8 8 8 9 8 8 9 8 6 5 6 7 5 6 6 5 4 4 2 0 2 1 4 5 4 3 5 5 4 4 4 5 6 7 8 8 8 9 9 9 10 9 9 9 9 10 9 9 8 8 8 8 7 7 6 7 6 5 8 6 5 4 4
9 10 10 11 11 11 11 10 10 10 8 8 7 8 9 9 8 7 8 9 9 8 7 7 8 8 7 7 8 8 8 7 8 8 7 7 7 6 4 2 2 2 1 2 2 3 3 3 2 3 4 5 4 4 4 5 6 8 10 10 9 8 9 8 8 9 10 9 9 9 8 7 7 6 8 8 7 6 6 4 6 8 6 6 5 3 3
10 10 9 9 10 10 11 10 6 9 8 9 8 8 6 8 11 10 10 10 8 8 8 9 8 8 8 7 6 6 7 7 6 6 7 7 7 5 3 3 3 2 3 3 3 1 3 2 5 8 4 2 2 5 3 2 6 7 7 8 9 9 9 9 9 8 8 8 8 8 8 7 7 7 6 6 6 6 5 7 8 7 7 5 3 3 2
10 10 9 9 8 9 9 9 7 6 6 6 6 8 7 7 7 7 6 8 9 8 6 8 7 6 6 5 5 6 7 7 6 6 7 8 7 8 7 5 3 3 2 2 2 2 3 4 9 11 5 4 3 5 4 7 7 7 8 9 9 9 9 8 8 10 9 8 9 9 10 8 6 6 6 6 6 6 5 6 5 7 7 5 5 4 3
10 9 8 8 8 8 6 7 8 7 7 7 5 5 6 6 7 6 5 5 5 7 7 6 6 5 5 6 6 7 7 7 7 7 7 6 7 8 9 8 7 6 5 4 3 4 5 7 10 7 5 6 6 7 10 12 13 8 8 9 9 9 9 8 9 8 8 8 9 9 9 8 7 5 4 5 5 5 4 4 4 5 6 6 5 3 3
10 8 7 8 7 7 7 5 7 5 5 6 6 6 7 8 7 7 6 6 6 7 6 5 5 6 7 7 6 6 7 8 6 8 7 7 9 11 10 9 8 7 5 6 7 6 6 8 8 8 7 8 8 7 12 15 15 10 10 9 10 9 9 8 9 8 8 6 8 9 9 6 4 4 5 5 4 4 4 5 4 4 4 4 3 4 4
9 8 9 9 9 8 6 6 5 6 6 6 7 8 8 8 8 7 7 7 6 7 7 7 6 5 5 6 6 6 7 8 7 7 7 7 8 10 10 11 11 9 9 11 9 9 12 16 12 10 10 11 10 8 10 13 12 10 10 10 10 9 8 8 8 8 7 7 7 6 7 5 4 5 5 5 5 4 4 5 4 4 4 4 4 3 3
9 9 8 7 6 7 7 7 6 7 8 9 9 8 8 8 7 7 8 7 7 7 7 7 6 4 5 5 6 7 8 8 8 7 6 8 9 7 9 9 9 8 10 10 10 11 14 12 10 11 11 12 12 11 11 15 12 10 10 11 11 11 10 9 8 7 6 7 6 6 5 5 7 7 5 4 4 4 4 4 4 4 4 4 4 3 3
9 9 8 8 7 8 8 7 7 8 9 9 9 9 9 9 8 8 7 7 7 7 8 7 6 6 5 6 8 9 9 9 9 8 9 8 8 7 9 8 7 7 11 13 12 12 11 11 12 11 11 12 12 16 14 11 11 10 10 9 9 10 10 7 5 6 7 4 4 5 5 5 5 5 5 5 5 4 4 5 4 4 4 4 4 4 3
9 8 8 7 8 8 8 8 9 9 9 9 9 9 9 8 8 8 8 8 8 7 7 8 8 7 8 8 9 10 9 9 11 11 12 11 10 10 10 8 7 8 14 11 11 10 11 11 12 11 13 13 13 16 13 10 9 9 8 7 6 6 6 5 4 4 5 5 4 4 5 5 5 4 4 4 4 5 4 4 4 3 3 3 3 3 3
8 7 7 7 7 7 7 8 9 9 9 9 8 7 8 7 7 8 8 9 9 9 8 8 8 8 8 9 9 9 9 8 9 7 8 8 10 11 9 8 7 10 13 10 10 10 10 10 11 15 19 19 19 16 10 9 9 9 9 8 7 7 7 7 7 6 4 4 4 4 5 5 5 5 5 4 4 4 3 4 3 3 3 3 2 2 3
6 6 7 7 8 8 8 9 9 8 6 6 7 8 8 9 9 9 9 10 10 10 10 10 10 10 10 11 10 9 8 8 7 7 7 8 8 7 8 9 9 8 10 11 10 9 9 9 12 16 13 15 15 13 8 8 8 9 9 8 8 8 7 7 6 5 5 5 5 4 4 4 4 4 4 4 4 4 4 4 4 3 3 3 3 3 3
7 7 7 8 9 9 8 8 7 6 6 8 8 8 8 9 9 9 9 9 9 10 9 10 11 10 10 11 11 11 10 10 10 9 7 6 7 6 7 9 7 9 14 13 9 9 10 15 16 15 16 15 13 8 6 6 7 7 7 7 6 5 5 4 5 5 5 5 5 5 5 5 4 4 4 4 4 5 4 3 3 3 3 3 3 1 1
6 7 8 8 7 7 8 7 7 8 8 8 9 8 7 10 10 9 8 9 10 9 10 11 11 10 10 10 9 9 9 8 9 8 6 6 7 8 9 12 12 14 12 9 8 7 7 7 9 11 12 12 9 5 5 5 5 4 4 3 3 2 3 4 6 6 6 6 7 8 8 7 6 5 5 5 4 3 2 2 2 3 3 2 1 3 2
6 7 6 6 6 7 7 8 8 7 8 8 7 7 7 9 10 9 8 9 9 9 9 8 8 8 9 10 10 8 7 7 10 7 5 4 5 6 6 6 6 10 11 11 11 7 7 5 5 7 10 9 5 4 4 4 3 3 3 4 5 5 5 4 4 4 4 4 4 3 3 3 3 4 4 4 4 3 2 2 3 4 3 2 2 2 0
5 5 5 5 5 6 6 7 7 7 6 6 6 5 6 7 8 8 8 7 8 8 7 8 10 9 9 9 9 8 7 6 7 6 4 5 6 4 3 3 4 3 5 5 5 3 4 7 8 8 8 6 3 3 2 3 3 4 4 3 3 3 4 4 4 4 4 4 4 3 3 5 4 3 3 4 4 3 2 4 5 3 2 1 0 2 1
3 3 4 4 5 5 5 6 7 6 6 6 5 5 6 5 5 5 5 6 5 5 5 6 6 5 5 6 7 8 7 9 9 7 4 2 2 3 3 3 3 3 4 4 5 5 6 8 7 8 5 3 4 4 5 5 5 5 5 6 6 6 7 8 8 8 6 5 6 5 5 4 3 2 3 4 2 3 2 2 3 4 3 3 1 2 2
2 3 4 5 5 6 7 6 6 5 5 6 5 5 5 5 5 4 5 3 6 5 5 6 6 6 6 6 5 7 7 8 8 9 7 4 3 2 3 1 1 2 3 3 3 4 4 3 3 4 5 4 5 5 5 5 5 5 5 5 5 4 4 4 3 4 4 3 3 5 5 4 2 2 3 4 3 2 2 2 2 2 2 2 3 3 3
3 3 4 4 5 5 6 7 6 5 5 5 4 3 4 6 5 5 5 5 3 4 5 7 7 7 8 8 6 5 5 6 6 7 8 8 7 7 5 4 2 1 3 4 4 5 5 6 5 7 7 5 4 5 6 6 4 4 5 4 3 3 5 4 4 3 2 2 4 4 4 3 2 4 3 3 3 2 2 3 3 3 3 2 3 3 2
Wind_Direction
292 297 301 304 296 285 287 294 292 278 281 49 19 35 342 347 298 299 321 303 289 293 300 318 356 10 349 343 339 332 333 342 341 349 343 351 6 336 308 293 191 267 217 231 184 111 113 117 120 118 94 109 236 168 133 137 179 183 173 177 181 180 177 178 183 179 175 178 173 166 163 172 177 179 194 197 189 45 32 25 95 112 96 87 67 65 69
287 288 289 291 292 293 290 280 271 268 288 101 69 21 352 313 292 290 290 291 289 341 8 2 350 350 338 335 333 331 339 337 332 339 352 1 355 329 304 302 217 222 233 172 181 139 122 121 124 125 111 118 182 244 164 171 160 189 194 183 177 180 182 185 184 176 171 164 165 161 168 175 181 182 182 175 112 80 57 355 32 68 82 72 53 86 116
290 285 279 277 272 273 264 264 272 285 279 266 91 339 1 2 305 305 301 310 305 32 322 351 329 339 328 335 354 348 332 337 343 346 356 360 347 318 296 301 309 198 160 158 143 122 119 142 146 132 147 141 138 214 189 182 184 188 185 181 180 179 186 190 190 170 161 166 166 168 173 175 181 183 177 154 118 122 121 98 27 36 35 46 308 222 154
284 279 279 281 281 284 310 14 19 9 351 348 11 340 47 331 321 323 320 301 309 0 342 340 331 328 339 349 357 350 336 336 349 359 2 351 330 311 310 297 303 291 134 140 55 31 128 161 176 143 136 146 147 203 229 205 193 190 187 184 184 182 176 177 179 182 173 174 176 176 176 179 179 178 164 159 130 129 156 143 58 40 36 209 202 152 133
291 311 303 285 305 310 273 25 8 28 25 11 354 352 5 62 27 346 286 284 326 329 333 326 335 339 335 338 339 332 321 323 341 356 354 342 333 318 313 308 319 318 355 109 137 172 51 233 205 180 139 145 200 195 231 232 208 188 191 180 174 166 167 174 176 181 185 187 187 182 183 179 178 161 152 111 92 125 109 54 80 102 227 248 230 165 157
304 295 300 308 329 291 8 300 355 35 23 7 0 344 338 25 339 295 302 314 331 326 332 338 346 329 327 315 308 278 268 302 315 327 1 354 320 301 303 305 326 322 335 9 104 140 160 215 211 180 175 185 178 176 203 254 213 205 175 170 169 168 168 178 180 185 186 190 191 189 183 179 166 145 114 93 88 56 55 210 181 172 189 201 234 159 204
284 319 312 301 280 334 144 331 34 31 21 23 347 321 324 344 27 11 322 316 326 337 330 338 335 327 313 302 299 318 297 283 298 334 358 345 324 311 311 314 322 328 331 358 31 98 147 203 214 185 186 195 205 180 160 279 271 93 280 161 201 190 185 187 188 187 191 191 188 186 178 169 143 83 77 96 89 148 202 197 161 181 179 142 160 152 56
289 279 289 294 359 105 117 68 39 35 32 16 335 304 89 34 5 358 344 339 321 324 327 330 333 327 314 302 287 283 290 304 309 349 338 348 322 303 307 311 320 328 338 346 356 36 115 172 225 202 177 180 174 132 99 123 112 113 166 245 215 196 194 195 197 192 194 190 180 174 165 112 78 89 111 140 147 188 181 154 191 191 159 138 155 147 152
297 316 306 296 329 156 72 27 26 26 13 349 348 321 23 25 16 344 342 320 324 328 332 335 326 326 310 295 293 236 295 296 291 305 303 320 307 303 307 319 322 334 339 344 3 6 19 20 348 315 270 176 168 133 161 188 176 173 181 192 204 199 194 188 194 192 192 188 163 93 56 66 99 138 162 157 139 159 158 166 163 153 158 151 112 111 115
314 303 302 293 282 301 52 40 50 27 325 295 313 322 301 13 10 342 352 326 331 331 336 340 329 320 307 303 331 13 310 326 334 346 330 317 298 295 312 320 322 339 353 13 39 55 54 21 14 345 337 317 106 168 187 191 194 198 179 180 185 182 180 169 124 13 349 64 77 112 138 139 172 178 146 111 130 158 154 153 140 80 16 83 80 96 114
275 271 282 303 307 37 21 34 29 95 289 308 315 293 271 356 314 331 330 323 331 337 339 339 331 320 312 330 343 341 345 346 324 319 314 313 311 319 318 316 312 339 24 45 48 48 90 125 123 77 32 352 336 259 253 216 192 194 194 186 157 123 97 76 59 45 53 67 116 125 118 151 168 119 105 122 136 143 143 136 131 142 138 112 95 92 130
269 308 301 307 4 41 21 98 226 282 302 309 283 276 310 328 319 315 315 317 325 336 336 335 327 335 309 318 325 330 331 340 302 315 320 315 320 331 332 337 328 352 36 52 47 37 19 13 9 34 50 53 11 330 276 258 217 208 195 155 99 87 86 77 79 93 102 101 95 171 159 154 148 137 136 146 147 138 117 93 77 83 101 102 116 135 140
291 303 303 297 95 34 28 335 11 31 319 296 282 290 355 327 308 301 298 292 305 327 323 326 315 312 259 277 298 303 319 298 311 312 325 325 322 324 329 346 1 357 22 27 42 44 72 42 37 30 92 82 58 357 309 285 250 227 111 105 100 106 121 131 131 132 149 165 164 159 153 149 146 133 136 139 130 118 111 106 105 89 94 111 122 134 120
310 334 297 302 31 120 306 8 11 360 304 290 327 31 253 281 292 290 290 298 299 310 317 313 309 303 302 299 302 298 306 326 4 305 313 314 312 299 315 339 7 353 351 8 30 56 34 351 349 280 86 87 80 60 329 306 284 280 159 135 125 145 166 143 126 124 140 129 156 135 130 129 135 136 135 125 118 107 100 115 117 115 115 97 79 70 102
330 306 295 311 330 61 316 348 44 25 337 7 339 337 255 283 299 298 293 282 289 296 296 305 307 312 316 315 315 312 306 322 343 305 315 302 282 293 326 352 1 348 341 355 355 350 5 337 283 250 75 88 100 85 323 291 281 257 200 130 140 163 126 109 127 139 140 144 166 129 131 136 131 124 119 112 106 107 107 108 111 106 93 79 88 63 171
340 297 313 354 357 339 354 5 350 68 356 8 177 285 307 279 284 298 303 298 300 292 296 302 309 313 313 305 303 306 310 321 265 290 292 296 309 315 333 339 341 333 334 338 333 324 322 316 311 291 258 116 112 112 227 256 263 234 188 156 162 142 121 128 143 148 147 158 151 135 138 134 128 127 124 121 112 110 113 113 112 102 86 82 136 184 152
323 336 329 360 16 359 352 4 66 77 12 7 341 286 259 284 297 313 288 293 291 284 295 303 306 307 307 300 308 303 307 314 294 261 284 295 311 317 321 327 334 319 298 312 314 307 294 273 269 256 225 134 127 155 201 218 246 248 189 160 171 157 147 148 148 150 143 145 145 139 141 136 129 131 128 129 119 123 124 123 120 125 149 170 171 154 135
4 212 91 112 356 338 344 349 73 116 176 222 192 291 300 294 291 274 279 286 293 300 305 305 304 300 307 303 297 286 285 270 289 298 290 302 306 310 318 322 331 313 256 273 283 286 272 270 284 280 272 239 186 173 179 210 207 212 182 202 173 195 158 156 157 151 143 144 141 133 138 134 134 138 142 146 142 144 125 118 136 153 162 154 147 133 125
341 114 30 350 344 322 338 353 112 152 181 197 228 272 283 293 308 302 297 306 302 297 295 291 297 301 298 297 293 294 302 287 278 289 300 319 321 321 320 320 316 317 313 314 313 301 293 275 274 284 302 319 308 114 177 247 224 199 202 203 214 196 164 160 156 151 143 134 117 106 106 110 154 134 132 141 138 145 142 156 159 147 138 151 140 134 127
315 358 4 330 312 301 339 336 324 302 214 231 249 267 268 271 276 283 288 296 295 302 297 301 304 302 304 304 303 308 309 313 312 312 315 323 321 322 315 310 313 310 314 321 319 307 304 308 248 258 289 316 310 291 256 270 331 310 297 202 228 201 190 201 153 145 127 111 98 79 64 60 55 76 89 81 74 60 94 131 151 149 151 144 130 134 132
67 263 259 315 286 230 198 246 331 344 334 319 301 293 292 291 291 294 297 292 292 293 293 301 300 299 299 302 305 305 308 305 309 319 317 317 317 317 314 313 310 311 314 313 308 299 297 296 298 292 292 322 351 7 33 29 46 17 353 324 326 297 99 353 25 100 102 96 97 98 87 73 61 39 5 33 71 70 49 16 354 140 132 117 127 115 107
292 338 352 353 337 328 328 330 342 334 328 321 314 319 315 308 313 301 293 297 297 297 302 300 295 292 299 304 300 299 300 300 308 317 315 310 308 309 309 308 308 311 310 303 306 306 301 302 304 311 324 13 31 31 67 71 79 48 10 346 344 322 35 11 32 90 102 104 103 101 96 96 87 67 52 45 33 58 57 32 56 58 64 86 84 94 81
316 346 1 349 322 299 319 330 320 324 317 316 316 309 292 286 287 292 303 302 300 298 298 298 297 295 292 290 293 294 295 309 314 308 307 307 306 306 310 309 308 310 310 309 306 307 304 298 300 306 307 345 42 54 63 72 66 87 127 102 20 4 52 81 288 140 117 115 112 106 108 107 99 98 84 53 50 54 64 60 59 60 64 67 66 74 96
308 354 333 332 322 317 317 315 317 306 316 315 310 311 314 313 309 305 303 303 303 301 296 292 288 289 290 292 294 298 303 307 311 311 308 307 307 305 303 301 301 303 304 305 304 301 299 291 286 285 326 40 51 51 63 62 69 54 55 63 74 76 26 357 301 301 109 114 115 116 114 111 108 110 103 97 69 48 58 67 64 66 69 68 69 71 72
329 338 328 315 313 310 307 303 303 311 313 317 310 309 306 301 303 302 294 291 290 292 292 291 291 289 291 293 294 295 299 300 299 303 309 305 300 300 302 303 302 306 311 310 307 302 300 303 312 336 4 72 25 42 41 56 73 96 99 97 109 112 117 33 321 265 139 118 119 118 117 114 114 109 108 106 99 91 63 66 71 72 67 68 70 72 73
319 322 316 314 307 299 304 313 308 314 318 313 308 307 308 309 308 294 289 290 289 288 286 286 289 291 293 293 292 292 294 295 302 305 300 299 301 305 307 311 313 313 313 314 310 316 324 347 349 7 5 83 163 103 86 96 113 132 120 118 108 121 139 121 126 296 128 123 116 116 116 117 113 109 106 104 109 107 103 95 72 61 59 59 66 73 67
317 314 321 313 305 308 317 314 308 305 305 309 305 307 302 298 301 296 293 289 288 287 285 287 286 288 286 284 290 292 291 295 295 292 296 300 301 307 313 313 314 315 315 323 339 1 349 330 9 47 86 205 257 197 142 141 135 120 112 100 97 117 115 100 88 223 177 118 119 115 111 107 109 113 113 115 113 110 109 102 95 90 91 63 39 38 76
304 318 317 304 307 309 307 303 296 301 312 318 311 300 297 295 291 292 294 293 288 287 285 285 289 291 292 295 297 295 296 296 301 305 304 304 309 312 311 312 310 319 334 352 358 271 274 287 85 128 136 226 233 194 125 131 133 116 128 133 134 128 123 120 121 222 156 119 117 115 115 112 115 116 115 107 97 96 96 97 98 100 90 74 78 69 70
328 316 315 302 299 298 294 293 301 312 314 307 304 304 303 301 299 298 295 295 297 298 294 294 292 290 288 293 295 298 301 301 301 305 309 310 311 314 313 316 328 346 340 315 310 344 10 22 40 50 11 261 210 164 155 143 125 133 152 150 129 130 126 124 126 125 98 83 90 102 105 112 110 104 101 101 102 103 101 102 102 104 105 114 111 88 76
311 314 307 300 303 298 305 312 311 311 311 312 309 303 300 298 299 300 304 306 309 304 303 304 302 302 306 301 300 297 301 305 306 307 308 312 312 318 328 348 342 322 311 343 15 21 23 51 62 113 195 220 202 131 115 118 131 155 138 133 143 133 121 121 113 105 100 98 98 100 99 100 101 106 105 106 109 107 107 109 116 119 126 135 123 114 122
309 304 305 315 304 316 320 315 314 313 306 304 303 301 302 310 310 307 303 306 304 305 309 312 325 329 326 321 318 313 308 307 305 306 310 323 343 352 349 355 308 298 300 322 356 3 44 88 133 198 236 228 124 137 152 159 153 152 147 146 127 111 117 117 114 112 115 115 108 105 100 97 94 104 106 108 109 109 115 124 127 124 122 132 125 112 123
310 313 318 315 325 334 317 308 308 306 307 308 307 313 315 308 303 303 309 315 316 316 319 319 322 324 313 324 324 320 322 320 317 318 325 350 11 7 319 278 267 278 305 339 351 3 48 127 182 210 211 210 171 158 163 161 157 148 138 123 118 117 106 105 101 107 113 110 110 105 110 111 108 106 106 111 118 126 133 124 115 121 127 99 70 66 69
317 318 321 328 324 314 309 310 310 308 309 311 313 314 313 316 323 320 311 314 313 320 316 318 323 324 317 325 330 321 324 331 334 334 341 346 327 285 284 321 310 300 339 7 1 335 237 215 214 245 239 241 221 172 170 159 147 139 133 131 127 122 122 115 115 113 107 105 106 105 108 106 110 116 123 124 124 124 115 108 101 104 97 86 88 72 67
325 322 313 310 304 305 307 308 305 303 308 311 308 305 302 311 316 318 319 316 314 320 331 338 319 332 329 328 323 316 327 344 348 343 323 326 318 309 324 325 341 14 3 260 97 168 191 189 142 166 224 217 209 186 163 137 133 126 122 119 121 122 120 121 119 114 116 116 119 116 111 116 130 136 127 121 111 106 100 104 122 118 90 86 89 83 52
319 312 313 309 307 305 304 302 309 306 303 300 305 314 320 326 328 325 328 333 330 317 331 333 329 338 340 334 333 338 351 358 354 343 325 325 324 328 336 333 339 329 18 18 62 149 184 175 175 174 218 182 191 173 111 117 134 126 121 125 128 122 118 120 117 122 122 122 120 118 126 136 141 126 116 115 117 116 118 117 90 82 88 80 70 83 76
325 319 312 312 322 333 324 315 323 314 314 309 319 321 342 334 327 341 336 328 327 338 347 331 330 338 344 351 335 345 7 12 6 354 345 336 321 329 353 31 35 51 59 44 31 204 195 178 164 184 187 190 262 82 14 70 105 107 108 118 121 122 122 116 113 110 108 110 111 115 120 118 118 115 109 101 90 78 69 77 91 94 88 90 97 95 107
325 320 327 330 328 323 320 318 310 319 328 326 330 323 329 340 341 329 330 316 328 342 342 320 331 351 355 356 352 13 20 11 5 5 14 17 17 29 22 16 15 350 339 64 27 349 101 93 94 93 75 131 83 113 128 98 77 82 91 91 98 108 113 113 111 112 109 105 101 96 86 70 57 70 75 77 90 103 113 115 123 124 126 132 141 156 163
322 334 335 327 326 321 321 320 324 336 338 334 336 346 350 341 341 345 344 339 2 329 335 332 351 350 2 3 19 24 17 11 10 37 42 36 47 54 39 30 20 22 41 31 15 72 82 80 81 79 90 90 102 112 108 107 105 90 79 84 88 85 87 95 98 93 94 101 103 97 97 97 98 97 92 90 106 122 124 116 113 122 141 154 155 152 125
339 344 331 333 338 341 336 345 339 5 2 356 4 6 359 353 0 356 4 5 15 356 351 338 342 358 13 6 6 15 15 4 39 67 57 59 62 63 53 45 39 35 34 28 28 28 57 68 60 54 47 63 79 82 99 97 97 93 92 91 88 88 92 88 85 82 81 83 89 96 99 101 98 85 86 99 99 94 102 115 109 110 119 116 116 108 106
341 342 340 349 346 355 358 17 8 17 25 3 21 28 21 16 21 21 15 6 6 355 358 352 355 14 6 11 15 22 36 45 61 64 63 61 61 65 59 42 31 28 44 51 49 49 58 67 72 70 65 53 45 49 61 69 76 83 85 84 87 81 77 81 88 86 94 102 110 108 101 103 106 96 88 88 85 96 107 124 142 136 116 105 103 106 105
346 346 351 10 0 339 11 22 27 40 38 29 27 28 26 16 14 17 11 4 7 14 20 11 5 27 31 36 52 63 66 64 61 64 58 62 60 53 53 43 19 22 47 59 65 65 62 62 67 79 79 73 69 60 61 66 66 67 75 81 82 83 75 65 69 66 50 58 62 87 110 106 92 96 110 113 119 128 137 130 114 112 117 114 108 106 104
355 355 0 10 11 14 14 31 43 47 42 34 25 20 22 26 28 27 22 20 18 23 16 27 41 47 59 77 83 80 72 66 63 52 46 45 48 53 64 45 17 31 53 61 61 62 66 71 70 63 67 75 73 69 69 64 69 72 72 69 79 88 99 99 86 113 140 162 130 113 110 115 117 122 124 133 135 132 120 113 111 107 112 122 129 130 134
354 4 11 14 18 28 30 43 47 43 46 40 33 30 30 30 32 31 27 27 31 34 36 34 48 73 87 85 85 78 68 67 67 69 68 58 49 49 60 56 32 40 55 63 63 69 64 61 64 69 70 72 72 68 67 66 63 62 60 59 61 75 75 69 69 64 70 69 70 78 82 92 103 107 104 101 106 109 113 111 108 110 115 107 110 115 104
3 5 21 28 38 40 58 55 49 47 47 44 40 34 34 36 39 39 39 36 41 48 49 48 47 44 55 71 79 75 71 69 67 58 70 67 57 39 35 45 48 47 45 61 67 69 67 69 72 75 72 73 73 69 59 63 66 68 69 68 63 64 71 76 72 70 75 82 89 80 77 81 84 88 102 112 117 110 98 93 95 95 97 100 103 101 108
18 23 26 38 49 48 49 55 57 56 57 67 62 54 50 49 48 49 48 44 47 54 56 57 62 63 64 64 60 59 61 53 52 51 59 61 61 47 34 43 43 39 48 58 70 67 72 76 84 87 89 87 85 81 80 78 76 73 67 63 57 55 59 64 72 75 69 68 67 75 85 84 81 80 84 91 99 107 119 119 120 127 123 110 96 94 80
27 36 46 50 49 51 60 72 75 63 54 65 77 77 74 70 61 50 45 45 51 55 57 61 66 67 70 72 73 68 64 61 53 52 54 55 67 63 44 47 53 55 52 54 64 66 72 74 75 73 72 69 64 67 72 78 84 89 89 88 86 85 81 87 80 78 78 81 84 93 99 98 88 82 74 65 61 71 78 111 109 71 64 81 91 75 200
44 58 62 66 69 70 79 83 78 68 62 54 56 61 71 72 70 65 56 54 51 49 60 63 60 60 60 60 65 72 71 67 55 35 33 39 46 51 52 60 63 62 61 59 60 66 71 70 72 87 95 97 99 95 86 85 84 96 107 125 110 94 75 67 68 72 72 73 75 74 74 78 86 94 109 124 127 127 135 91 84 124 131 127 155 142 88
57 67 69 71 74 85 86 86 81 74 68 66 67 68 77 89 86 78 70 63 57 53 58 63 72 75 75 77 72 65 62 78 82 47 355 27 50 56 54 44 56 79 79 85 89 100 118 154 137 106 91 87 79 73 82 76 87 93 92 85 79 75 81 85 92 96 99 99 106 117 135 136 130 130 119 99 82 61 40 74 76 56 42 41 33 52 296
68 67 65 60 68 70 76 87 93 90 89 89 78 72 72 87 107 111 103 91 84 78 75 82 85 86 89 87 85 79 70 58 75 86 17 21 38 35 30 33 26 56 96 112 126 131 99 87 79 76 78 77 75 86 89 90 73 62 65 76 99 122 138 138 145 143 140 133 123 97 87 95 105 100 90 83 96 106 100 93 86 58 29 342 220 110 53
74 70 71 67 64 63 64 73 78 87 107 104 93 98 109 108 91 77 90 110 112 110 96 82 78 86 104 116 113 113 104 100 99 104 121 149 249 262 259 240 209 136 101 92 90 92 92 88 90 95 93 87 78 62 61 66 68 72 74 73 73 69 60 60 53 55 55 63 75 79 83 76 55 69 93 95 83 84 73 88 110 142 199 233 38 44 32
100 89 80 74 75 74 69 66 77 83 82 92 106 109 98 82 70 50 15 75 129 131 124 112 103 94 79 68 86 114 133 143 148 150 144 165 226 327 326 28 64 68 103 107 111 116 122 129 126 124 124 134 131 131 127 120 113 104 101 109 111 119 126 109 112 118 117 102 107 124 125 122 111 99 94 108 102 85 83 96 73 91 124 37 43 35 26
109 99 100 91 92 97 93 88 89 91 99 104 94 81 92 110 92 51 28 10 96 124 150 139 134 129 116 111 103 114 124 125 130 137 150 153 158 150 171 172 212 283 71 66 69 71 70 68 76 91 99 96 96 95 91 103 122 134 147 149 142 86 61 85 119 116 93 144 126 90 73 62 85 105 88 70 76 85 65 58 57 45 39 34 43 30 11